ZL1TQN Weather Reports


Display with metric or nautical units.
time (UTC)temp
F
wind
direction
speed
MPH
gust
MPH
rain 1hr
in
rain 24hr
in
rain mn
in
humidity
%
barometer
mb
20260503215505 60 218 2.0 3.0 0.00 0.00 0.00 72 1035.5
20260503215005 60 190 0.0 6.0 0.00 0.00 0.00 75 1035.5
20260503214505 60 137 2.0 6.0 0.00 0.00 0.00 74 1035.5
20260503214005 60 204 1.0 3.0 0.00 0.00 0.00 80 1035.5
20260503213505 59 239 1.0 3.0 0.00 0.00 0.00 80 1035.5
20260503212005 57 152 1.0 3.0 0.00 0.00 0.00 82 1035.5
20260503211506 57 144 1.0 5.0 0.00 0.00 0.00 83 1035.5
20260503211006 57 126 1.0 5.0 0.00 0.00 0.00 84 1035.5
20260503210007 56 160 2.0 3.0 0.00 0.00 0.00 84 1035.5
20260503205506 56 154 1.0 3.0 0.00 0.00 0.00 85 1035.5
20260503205005 56 134 2.0 5.0 0.00 0.00 0.00 86 1035.5
20260503204005 55 137 2.0 5.0 0.00 0.00 0.00 88 1035.5
20260503203505 54 122 1.0 3.0 0.00 0.00 0.00 88 1035.5
20260503203005 54 151 1.0 3.0 0.00 0.00 0.00 89 1035.5
20260503202506 53 194 2.0 3.0 0.00 0.00 0.00 90 1035.5
20260503201505 53 139 1.0 3.0 0.00 0.00 0.00 90 1035.4
20260503201005 53 124 1.0 3.0 0.00 0.00 0.00 90 1035.4
20260503200005 52 110 1.0 3.0 0.00 0.00 0.00 91 1035.3
20260503195006 52 131 1.0 3.0 0.00 0.00 0.00 91 1035.1
20260503194505 52 130 1.0 2.0 0.00 0.00 0.00 91 1035.0
20260503193005 51 128 1.0 3.0 0.00 0.00 0.00 91 1035.0
20260503192505 51 147 1.0 3.0 0.00 0.00 0.00 91 1035.0
20260503190005 51 133 1.0 2.0 0.00 0.00 0.00 92 1034.5
20260503185505 51 165 1.0 2.0 0.00 0.00 0.00 92 1034.5
20260503185006 51 127 1.0 2.0 0.00 0.00 0.00 92 1034.5
20260503184005 51 77 0.0 2.0 0.00 0.00 0.00 92 1034.5
20260503183506 51 96 1.0 2.0 0.00 0.00 0.00 92 1034.5
20260503182505 52 79 1.0 2.0 0.00 0.00 0.00 92 1034.3
20260503182006 52 89 1.0 2.0 0.00 0.00 0.00 92 1034.3
20260503181006 52 106 0.0 2.0 0.00 0.00 0.00 92 1034.2
20260503175505 52 108 0.0 3.0 0.00 0.00 0.00 92 1034.0
20260503175005 52 97 1.0 2.0 0.00 0.00 0.00 91 1034.0
20260503174505 52 143 0.0 2.0 0.00 0.00 0.00 91 1034.0
20260503173005 52 144 1.0 5.0 0.00 0.00 0.00 92 1033.9
20260503172505 52 158 1.0 3.0 0.00 0.00 0.00 92 1033.9
20260503172005 52 136 1.0 3.0 0.00 0.00 0.00 92 1033.9
20260503171006 52 135 1.0 3.0 0.00 0.00 0.00 92 1034.0
20260503131005 49 142 0.0 0.0 0.00 0.00 0.00 92 1035.5
20260503081506 49 143 1.0 3.0 0.00 0.00 0.00 91 1034.0
20260503081006 49 148 1.0 2.0 0.00 0.00 0.00 90 1034.0
20260503072506 50 141 2.0 3.0 0.00 0.00 0.00 90 1033.9
20260503072005 50 145 1.0 2.0 0.00 0.00 0.00 90 1033.9
20260503071505 50 146 2.0 3.0 0.00 0.00 0.00 89 1033.9
20260503071006 50 148 1.0 3.0 0.00 0.00 0.00 89 1034.0
20260503055007 56 114 1.0 2.0 0.00 0.00 0.00 81 1033.4
20260503054506 57 106 1.0 1.0 0.00 0.00 0.00 81 1033.4
20260503054006 57 96 1.0 1.0 0.00 0.00 0.00 80 1033.4
20260503053506 58 25 0.0 0.0 0.00 0.00 0.00 78 1033.4
20260503052005 59 25 0.0 0.0 0.00 0.00 0.00 77 1033.2
20260503051505 59 25 0.0 1.0 0.00 0.00 0.00 76 1033.1
20260503051006 59 25 0.0 1.0 0.00 0.00 0.00 76 1033.2
20260503050006 60 18 0.0 3.0 0.00 0.00 0.00 75 1033.1
20260503045505 60 19 1.0 3.0 0.00 0.00 0.00 75 1033.0
20260503045005 61 10 1.0 3.0 0.00 0.00 0.00 74 1033.1
20260503044505 61 22 2.0 3.0 0.00 0.00 0.00 73 1033.1
20260503044005 61 52 1.0 3.0 0.00 0.00 0.00 74 1033.1
20260503043006 62 26 1.0 3.0 0.00 0.00 0.00 72 1033.1
20260503042506 62 43 1.0 3.0 0.00 0.00 0.00 72 1033.2
20260503042006 62 26 1.0 3.0 0.00 0.00 0.00 70 1033.3
20260503041505 62 26 1.0 3.0 0.00 0.00 0.00 71 1033.2
20260503041005 62 30 0.0 3.0 0.00 0.00 0.00 71 1033.3
20260503040006 63 11 2.0 3.0 0.00 0.00 0.00 70 1033.1
20260503035006 63 359 1.0 5.0 0.00 0.00 0.00 69 1033.0
20260503034506 63 67 1.0 6.0 0.00 0.00 0.00 69 1033.0
20260503034006 63 17 2.0 6.0 0.00 0.00 0.00 67 1033.0
20260503033006 64 6 2.0 5.0 0.00 0.00 0.00 68 1033.0
20260503032006 64 26 1.0 6.0 0.00 0.00 0.00 69 1033.1
20260503031505 64 35 2.0 6.0 0.00 0.00 0.00 67 1033.1
20260503030005 65 346 2.0 5.0 0.00 0.00 0.00 68 1033.2
20260503025005 65 4 2.0 5.0 0.00 0.00 0.00 68 1033.2
20260503024506 65 4 2.0 3.0 0.00 0.00 0.00 67 1033.2
20260503024005 65 339 1.0 3.0 0.00 0.00 0.00 68 1033.3
20260503023505 65 18 2.0 3.0 0.00 0.00 0.00 67 1033.3
20260503023006 65 341 2.0 3.0 0.00 0.00 0.00 68 1033.3
20260503022506 64 1 2.0 5.0 0.00 0.00 0.00 68 1033.3
20260503022006 64 350 2.0 5.0 0.00 0.00 0.00 69 1033.3
20260503021505 64 17 1.0 3.0 0.00 0.00 0.00 69 1033.4
20260503021006 63 17 0.0 3.0 0.00 0.00 0.00 72 1033.4
20260503020006 63 296 0.0 2.0 0.00 0.00 0.00 69 1033.4
20260503015505 63 284 1.0 2.0 0.00 0.00 0.00 69 1033.4
20260503014006 63 331 2.0 5.0 0.00 0.00 0.00 67 1033.5
20260503013505 63 330 1.0 3.0 0.00 0.00 0.00 68 1033.6
20260503013006 62 324 2.0 3.0 0.00 0.00 0.00 68 1033.7
20260503012005 63 329 2.0 3.0 0.00 0.00 0.00 67 1033.9
20260503011506 64 283 1.0 5.0 0.00 0.00 0.00 67 1033.9
20260503010005 64 308 2.0 7.0 0.00 0.00 0.00 64 1033.9
20260503005505 65 272 2.0 6.0 0.00 0.00 0.00 66 1034.0
20260503005005 64 268 2.0 6.0 0.00 0.00 0.00 65 1034.0
20260503004505 64 31 1.0 3.0 0.00 0.00 0.00 66 1034.2
20260503004005 64 38 2.0 5.0 0.00 0.00 0.00 64 1034.2
20260503003505 64 254 2.0 5.0 0.00 0.00 0.00 65 1034.3
20260503003005 64 336 2.0 6.0 0.00 0.00 0.00 65 1034.4
20260503002505 64 269 2.0 6.0 0.00 0.00 0.00 66 1034.4
20260503001505 64 268 2.0 5.0 0.00 0.00 0.00 68 1034.4
20260503001006 64 247 2.0 3.0 0.00 0.00 0.00 66 1034.5
20260503000005 63 239 1.0 3.0 0.00 0.00 0.00 68 1034.7
20260502234506 62 188 1.0 3.0 0.00 0.00 0.00 69 1034.9
20260502233506 61 184 2.0 3.0 0.00 0.00 0.00 71 1035.0
20260502233006 61 162 2.0 3.0 0.00 0.00 0.00 71 1035.0
20260502232505 62 158 1.0 3.0 0.00 0.00 0.00 71 1035.0
20260502232005 62 203 1.0 3.0 0.00 0.00 0.00 72 1035.0
20260502231005 62 242 2.0 6.0 0.00 0.00 0.00 73 1035.0
20260502225505 61 243 2.0 5.0 0.00 0.00 0.00 75 1035.2
20260502224005 61 222 2.0 3.0 0.00 0.00 0.00 72 1035.1
20260502223505 61 268 2.0 3.0 0.00 0.00 0.00 71 1035.2
20260502222505 61 184 2.0 3.0 0.00 0.00 0.00 72 1035.2
20260502222005 61 268 2.0 3.0 0.00 0.00 0.00 71 1035.2
20260502221505 61 256 2.0 3.0 0.00 0.00 0.00 74 1035.2
20260502221006 61 259 2.0 3.0 0.00 0.00 0.00 75 1035.1